| Station | Date | Daily Max Temp (°F) | Time of Max Temp | Daily Min Temp (°F) | Time of Min Temp | Daily Rain (In) | Month Precip (In) | Season Precip (In) | Daily ETo (in) | 7 Day ETo (in) | Daily Solar Rad (Cal/cm2) | Wind Spd (mph) | Daily Max Wind (mph) | Time of Max Wind | Max Wind Dir (°) | Dew Pt (°F) | Daily Max RH (%) | Daily Min RH (%) | Hrs 70-85F (hrs) | Hrs > 95F (hrs) | Powdery Mildew Stress (pts) | Hrs <= 32F (hrs) | Hrs <= 28F (hrs) | GDDs (DL) | Seas GDDs (DL) | Chilling <=45F (hrs) | Daily Leaf Wet (Hrs) | MinBV Day (V) | Max 15 Min Rain (In) | Max 15 Min Precip Time | Max 60 Min Rain (In) | Max 60 Min Rain Time |
|---|---|---|---|---|---|---|---|---|---|---|---|---|---|---|---|---|---|---|---|---|---|---|---|---|---|---|---|---|---|---|---|---|
| Utter - Wilson | 9/3/26 | 76.3 | 1459 | 56.9 | 0641 | 0.00 | 0.00 | 0.00 | 0.110 | 1.16 | 271 | 6.0 | 19.0 | 1655 | WSW | 237 | 58.3 | 92 | 56 | 7.64 | 0.00 | 80 | 0.0 | 0.0 | 16.0 | 2,998 | 0.0 | - | 12.7 | - | - | - | - |
| Clarksburg | 9/3/26 | 77.0 | 1411 | 54.1 | 0640 | 0.00 | 0.00 | 0.00 | 0.118 | 1.14 | 302 | 4.6 | 20.8 | 1506 | W | 259 | 55.6 | 88 | 48 | 7.26 | 0.00 | 60 | 0.0 | 0.0 | 15.6 | 2,912 | 0.0 | - | 12.5 | - | - | - | - |
| Gorter - Wilson | 9/3/26 | 78.8 | 1359 | 54.8 | 0643 | 0.00 | 0.00 | 0.00 | 0.111 | 1.08 | 295 | 5.3 | 19.3 | 1730 | WNW | 282 | 58.5 | 96 | 55 | 7.36 | 0.00 | 60 | 0.0 | 0.0 | 15.6 | 2,862 | 0.0 | - | 12.8 | - | - | - | - |
| Clarksburg-3A2 | 9/3/26 | 77.5 | 1359 | 56.5 | 0645 | 0.00 | 0.00 | 0.00 | 0.145 | 1.31 | 353 | 9.0 | 24.8 | 1636 | WSW | 251 | 57.2 | 92 | 50 | 7.73 | 0.00 | 60 | 0.0 | 0.0 | 16.4 | 2,929 | 0.0 | - | 12.6 | - | - | - | - |
| Courtland-C3 | 9/3/26 | 77.2 | 1347 | 55.1 | 0639 | 0.00 | 0.00 | 0.00 | - | - | - | 5.2 | 17.8 | 1705 | WSW | 256 | 56.9 | 92 | 52 | 7.30 | 0.00 | 60 | 0.0 | 0.0 | 15.5 | 2,737 | 0.0 | - | 12.8 | - | - | - | - |
| Pacific Fruit | 9/3/26 | 82.0 | 1501 | 60.1 | 0622 | 0.00 | 0.00 | 0.00 | 0.138 | 1.24 | 320 | 5.8 | 18.2 | 1321 | W | 268 | 59.0 | 80 | 47 | 12.15 | 0.00 | 80 | 0.0 | 0.0 | 20.9 | 3,518 | 0.0 | - | 10.3 | - | - | - | - |
| Ryer Island South | 9/3/26 | 80.3 | 1237 | 57.6 | 0703 | 0.00 | 0.00 | 0.00 | 0.128 | 1.09 | 339 | 4.5 | 15.6 | 1508 | WNW | 290 | 56.6 | 86 | 43 | 8.65 | 0.00 | 70 | 0.0 | 0.0 | 17.4 | 2,981 | 0.0 | 0.0 | 11.9 | - | - | - | - |
| Guard Rd (Lodi WSW) | 9/3/26 | 81.3 | 1332 | 52.3 | 0611 | 0.00 | 0.00 | 0.00 | 0.167 | 1.26 | 498 | 3.3 | 16.7 | 1718 | WNW | 294 | 55.9 | 100 | 42 | 9.21 | 0.00 | 80 | 0.0 | 0.0 | 16.8 | 2,722 | 0.0 | - | 12.5 | - | - | - | - |
| Claussen | 9/3/26 | 89.5 | 1526 | 57.1 | 0559 | 0.00 | 0.00 | 0.00 | 0.169 | 1.24 | 442 | 3.2 | 16.8 | 1251 | NNW | 332 | 57.7 | 79 | 36 | 5.68 | 0.00 | 30 | 0.0 | 0.0 | 23.8 | 3,703 | 0.0 | - | 12.4 | - | - | - | - |
| Howard | 9/3/26 | 78.9 | 1430 | 54.2 | 0618 | 0.01 | 0.01 | 0.01 | 0.140 | 1.06 | 411 | 3.6 | 17.5 | 1635 | W | 280 | 57.1 | 94 | 49 | 8.33 | 0.00 | 80 | 0.0 | 0.0 | 16.2 | 2,812 | 0.0 | - | 12.4 | 0.01 | 0010 | 0.01 | 0055 |
| Valley Oak | 9/3/26 | 79.6 | 1547 | 51.2 | 0617 | 0.01 | 0.01 | 0.01 | 0.150 | 1.16 | 412 | 4.5 | 17.0 | 1616 | WNW | 285 | 54.4 | 95 | 43 | 8.13 | 0.00 | 80 | 0.0 | 0.0 | 15.6 | 2,808 | 0.0 | - | 12.0 | 0.01 | 0013 | 0.01 | 0058 |
| Thornton | 9/3/26 | 80.2 | 1555 | 52.4 | 0643 | 0.01 | 0.01 | 0.01 | 0.136 | 1.06 | 383 | 3.4 | 18.8 | 1547 | WSW | 238 | 56.2 | 89 | 48 | 8.98 | 0.00 | 80 | 0.0 | 0.0 | 16.6 | 2,888 | 0.0 | 0.0 | 12.4 | 0.01 | 0011 | 0.01 | 0056 |
| Kost Rd | 9/3/26 | 82.2 | 1552 | 56.1 | 0623 | 0.00 | 0.00 | 0.00 | 0.129 | 1.01 | 350 | 3.1 | 14.9 | 1702 | WNW | 283 | 58.4 | 90 | 46 | 10.56 | 0.00 | 80 | 0.0 | 0.0 | 19.0 | 3,357 | 0.0 | - | 12.5 | - | - | - | - |
| DeVries Road-North | 9/3/26 | 80.9 | 1401 | 52.5 | 0640 | 0.00 | 0.00 | 0.00 | 0.132 | 1.06 | 385 | 3.5 | 17.0 | 1427 | WSW | 244 | 57.7 | 98 | 48 | 8.70 | 0.00 | 80 | 0.0 | 0.0 | 15.9 | 2,749 | 0.0 | - | 12.7 | - | - | - | - |
| Lodi (LangeTwins) | 9/3/26 | 81.5 | 1630 | 52.1 | 0613 | 0.00 | 0.00 | 0.00 | - | 0.00 | - | 2.0 | 14.4 | 1555 | SSE | 147 | 58.2 | 98 | 49 | 9.17 | 0.00 | 80 | 0.0 | 0.0 | 16.6 | 2,903 | 0.0 | 8.1 | 12.8 | - | - | - | - |
| Acampo | 9/3/26 | 81.0 | 1544 | 53.9 | 0648 | 0.00 | 0.00 | 0.00 | 0.147 | 1.12 | 418 | 3.1 | 13.8 | 1553 | WSW | 248 | 54.6 | 92 | 40 | 9.07 | 0.00 | 80 | 0.0 | 0.0 | 16.8 | 2,858 | 0.0 | 0.0 | 13.3 | - | - | - | - |
| Lodi West | 9/3/26 | 80.2 | 1418 | 52.4 | 0635 | 0.00 | 0.00 | 0.00 | - | 0.00 | - | 4.3 | 16.6 | 1613 | W | 273 | 54.1 | 92 | 37 | 8.90 | 0.00 | 80 | 0.0 | 0.0 | 17.0 | 2,347 | 0.0 | 1.0 | 12.5 | - | - | - | - |
| Sloughhouse | 9/3/26 | 81.3 | 1325 | 53.8 | 0628 | 0.00 | 0.00 | 0.00 | 0.055 | 0.44 | 18 | 3.8 | 16.0 | 1405 | W | 259 | 54.0 | 89 | 37 | 8.14 | 0.00 | 80 | 0.0 | 0.0 | 16.7 | 2,827 | 0.0 | - | 12.4 | - | - | - | - |
| Sheldon | 9/3/26 | 79.1 | 1349 | 55.2 | 0645 | 0.01 | 0.01 | 0.03 | 0.133 | 1.13 | 366 | 4.1 | 16.6 | 1652 | W | 260 | 55.4 | 89 | 45 | 7.78 | 0.00 | 80 | 0.0 | 0.0 | 16.3 | 2,890 | 0.0 | 0.0 | 12.6 | 0.01 | 0101 | 0.01 | 0101 |
| Gill Ranch | 9/3/26 | 80.1 | 1314 | 53.8 | 0636 | 0.00 | 0.00 | 0.00 | 0.151 | 1.23 | 406 | 5.3 | 18.9 | 1639 | WNW | 290 | 54.1 | 90 | 38 | 7.66 | 0.00 | 80 | 0.0 | 0.0 | 16.0 | 2,808 | 0.0 | - | 12.3 | - | - | - | - |
| Colony 1 | 9/3/26 | 79.3 | 1243 | 54.6 | 0651 | 0.00 | 0.00 | 0.01 | 0.164 | 1.30 | 444 | 5.6 | 20.5 | 1625 | W | 273 | 55.8 | 92 | 43 | 9.03 | 0.00 | 80 | 0.0 | 0.0 | 17.0 | 3,053 | 0.0 | - | 12.7 | - | - | - | - |
| Colony 2 | 9/3/26 | 81.1 | 1356 | 54.8 | 0645 | 0.02 | 0.02 | 0.02 | 0.151 | 1.27 | 441 | 4.4 | 16.4 | 1337 | WSW | 242 | 55.3 | 90 | 42 | 7.92 | 0.00 | 80 | 0.0 | 0.0 | 16.4 | 2,959 | 0.0 | - | 12.7 | 0.01 | 0101 | 0.02 | 0101 |
| Borden40 | 9/3/26 | 79.3 | 1345 | 54.4 | 0646 | 0.01 | 0.01 | 0.01 | 0.135 | 1.08 | 375 | 3.5 | 17.2 | 1646 | NNW | 332 | 55.2 | 94 | 38 | 8.76 | 0.00 | 80 | 0.0 | 0.0 | 16.6 | 2,866 | 0.0 | - | 12.5 | 0.01 | 0101 | 0.01 | 0101 |
| Sierra Loma-L27 | 9/3/26 | 81.2 | 1401 | 54.6 | 0622 | 0.00 | 0.00 | 0.00 | - | - | - | 3.5 | 16.2 | 1709 | NW | 310 | 58.3 | 93 | 45 | 9.68 | 0.00 | 100 | 0.0 | 0.0 | 17.6 | 3,091 | 0.0 | - | 12.8 | - | - | - | - |
| Borden Hills | 9/3/26 | 82.1 | 1332 | 54.1 | 0624 | 0.00 | 0.00 | 0.00 | 0.142 | 1.18 | 401 | 4.0 | 18.2 | 1657 | NW | 314 | 58.4 | 94 | 43 | 9.91 | 0.00 | 80 | 0.0 | 0.0 | 18.0 | 3,473 | 0.0 | - | 12.7 | - | - | - | - |
| Alabama Ranch | 8/19/26 | 97.2 | 1641 | 54.5 | 0651 | 0.00 | 0.00 | 0.00 | 0.218 | 1.40 | 606 | 2.6 | 11.0 | 2057 | W | 259 | 55.3 | - | - | 3.17 | 2.55 | 20 | 0.0 | 0.0 | 24.8 | 2,540 | 0.0 | - | 11.8 | - | - | - | - |
| 5 Wells | 9/3/26 | 80.4 | 1626 | 53.0 | 0647 | 0.00 | 0.00 | 0.00 | 0.152 | 1.22 | 434 | 4.4 | 18.6 | 1631 | WSW | 255 | 54.2 | 89 | 38 | 8.48 | 0.00 | 80 | 0.0 | 0.0 | 16.1 | 2,950 | 0.0 | - | 12.5 | - | - | - | - |
| Simmerhorn | 9/3/26 | 80.8 | 1631 | 53.4 | 0601 | - | - | - | - | - | - | - | - | - | - | 57.4 | 100 | 41 | 8.93 | 0.00 | 80 | 0.0 | 0.0 | 16.2 | 2,880 | 0.0 | - | 12.4 | - | - | - | - |
| Alta Mesa Rd | 9/3/26 | 79.4 | 1623 | 53.9 | 0601 | 0.00 | 0.00 | 0.00 | 0.137 | 1.11 | 396 | 3.7 | 16.4 | 1635 | NW | 305 | 55.2 | 100 | 43 | 8.75 | 0.00 | 80 | 0.0 | 0.0 | 16.2 | 2,881 | 0.0 | - | 12.6 | - | - | - | - |
| Gilbeau Ranch | 9/3/26 | 80.0 | 1626 | 51.8 | 0631 | 0.00 | 0.00 | 0.00 | 0.128 | 1.05 | 362 | 2.6 | 14.5 | 1741 | WNW | 292 | 55.0 | 100 | 36 | 8.76 | 0.00 | 80 | 0.0 | 0.0 | 15.9 | 3,029 | 0.0 | - | 12.2 | - | - | - | - |
| Lockeford | 9/3/26 | 80.2 | 1632 | 50.9 | 0652 | 0.00 | 0.00 | 0.00 | 0.139 | 1.12 | 418 | 3.1 | 18.3 | 1652 | NW | 308 | 56.1 | 94 | 45 | 8.34 | 0.00 | 80 | 0.0 | 0.0 | 15.6 | 2,806 | 0.0 | 0.0 | 12.2 | - | - | - | - |
| Acampo (Kappos) | 9/3/26 | 79.6 | 1547 | 54.9 | 0700 | 0.00 | 0.00 | 0.00 | 0.149 | 1.21 | 441 | 4.6 | 17.8 | 1802 | WNW | 299 | 56.7 | 94 | 46 | 8.27 | 0.00 | 100 | 0.0 | 0.0 | 16.7 | 2,947 | 0.0 | - | 12.7 | - | - | - | - |
| Victor - N (Katusha) | 9/3/26 | 80.2 | 1534 | 52.4 | 0655 | 0.00 | 0.00 | 0.00 | - | - | - | 2.6 | 14.2 | 1733 | W | 279 | 54.3 | 97 | 37 | 8.31 | 0.00 | 80 | 0.0 | 0.0 | 16.3 | - | 0.0 | - | 12.7 | - | - | - | - |
| Teresi-Alpine Rd (East Lodi) | 9/3/26 | 82.0 | 1511 | 53.7 | 0624 | 0.00 | 0.00 | 0.00 | - | - | - | 4.4 | 18.3 | 1700 | NW | 304 | 54.3 | 89 | 37 | 9.30 | 0.00 | 80 | 0.0 | 0.0 | 17.8 | 3,133 | 0.0 | - | 12.5 | - | - | - | - |
| Live Oak | 9/3/26 | 83.1 | 1522 | 52.6 | 0533 | 0.00 | 0.00 | 0.00 | 0.033 | 0.30 | 0 | 2.4 | 13.4 | 1644 | W | 273 | 55.5 | 100 | 39 | 9.38 | 0.00 | 80 | 0.0 | 0.0 | 17.0 | 2,922 | 0.0 | - | 12.2 | - | - | - | - |
| Lone Oak-L28 | 9/3/26 | 83.8 | 1645 | 50.8 | 0359 | 0.00 | 0.00 | 0.02 | - | - | - | 3.2 | 14.5 | 1816 | WNW | 300 | 56.1 | 90 | 44 | 8.71 | 0.00 | 80 | 0.0 | 0.0 | 16.1 | 2,704 | 0.0 | - | 12.3 | - | - | - | - |
| Linden | 9/3/26 | 86.5 | 1616 | 53.9 | 0647 | 0.00 | 0.00 | 0.02 | - | - | - | 1.8 | 11.4 | 1730 | WNW | 292 | 56.4 | 100 | 34 | 9.69 | 0.00 | 80 | 0.0 | 0.0 | 18.1 | 3,028 | 0.0 | 0.0 | 12.6 | - | - | - | - |
| Farmington (Mobley100) | 9/3/26 | 81.7 | 1628 | 54.5 | 0632 | - | - | - | - | - | - | 0.6 | 8.9 | 1743 | NNW | 347 | 55.9 | 93 | 38 | 9.39 | 0.00 | 80 | 0.0 | 0.0 | 17.4 | 2,807 | 0.0 | - | 12.4 | - | - | - | - |
| Collegeville | 9/3/26 | 84.7 | 1555 | 52.8 | 0605 | 0.00 | 0.00 | 0.01 | 0.146 | 1.12 | 448 | 2.0 | 12.7 | 1718 | WNW | 291 | 54.9 | 100 | 35 | 9.73 | 0.00 | 80 | 0.0 | 0.0 | 18.0 | 2,958 | 0.0 | - | 12.5 | - | - | - | - |
| Oakdale North (28 Mile Rd) | 9/3/26 | 84.5 | 1552 | 57.1 | 0658 | - | - | - | - | - | - | 0.9 | 8.8 | 1841 | WNW | 297 | 53.9 | 86 | 26 | 10.07 | 0.00 | 100 | 0.0 | 0.0 | 19.3 | 3,132 | 0.0 | - | 12.7 | - | - | - | - |
| Escalon | 9/3/26 | 84.6 | 1500 | 55.7 | 0413 | 0.00 | 0.00 | 0.00 | - | - | - | 1.8 | 10.5 | 1921 | WNW | 287 | 56.2 | 100 | 34 | 10.27 | 0.00 | 100 | 0.0 | 0.0 | 19.0 | 3,116 | 0.0 | 0.0 | 12.6 | - | - | - | - |
| Lodi (Acampo Rd) | 9/3/26 | 86.9 | 1550 | 56.7 | 0643 | 0.00 | 0.00 | 0.00 | 0.152 | 1.17 | 398 | 3.8 | 19.1 | 1824 | NW | 306 | 58.2 | 84 | 41 | 13.84 | 0.00 | 80 | 0.0 | 0.0 | 21.6 | 3,167 | 0.0 | - | 12.5 | - | - | - | - |
| Max | 89.5 | - | 60.1 | - | 0.02 | 0.02 | 0.03 | 0.169 | 1.31 | 498 | 9.0 | 24.8 | - | - | 59.0 | 100 | 56 | 13.84 | 0.00 | - | 0.0 | 0.0 | 23.8 | - | 0.0 | 8.1 | 13.3 | 0.01 | - | 0.02 | - | |
| Avg | - | - | - | - | - | - | - | - | - | - | 3.8 | - | - | - | 56.2 | - | - | 8.88 | 0.00 | - | 0.0 | 0.0 | 17.2 | - | 0.0 | - | - | - | - | - | - | |
| Min | 76.3 | - | 50.8 | - | 0.00 | 0.00 | 0.00 | 0.033 | 0.00 | 0 | 0.6 | 8.8 | - | - | 53.9 | 79 | 26 | 5.68 | 0.00 | - | 0.0 | 0.0 | 15.5 | - | 0.0 | 0.0 | 10.3 | 0.01 | - | 0.01 | - |